EW5543 Weather Reports


Display with metric or nautical units.
time (UTC)temp
F
wind
direction
speed
MPH
gust
MPH
rain 1hr
in
rain 24hr
in
rain mn
in
humidity
%
barometer
mb
20260504050105 53 250 5.0 11.0 0.00 0.00 0.00 57 1009.3
20260504044537 53 256 5.0 10.0 0.00 0.00 0.00 57 1009.3
20260504043035 53 191 4.0 10.0 0.00 0.00 0.00 58 1009.4
20260504041535 52 241 4.0 10.0 0.00 0.00 0.00 60 1009.4
20260504040032 52 206 4.0 9.0 0.00 0.00 0.00 61 1009.5
20260504034540 51 236 4.0 9.0 0.00 0.00 0.00 63 1009.6
20260504033031 51 235 2.0 6.0 0.00 0.00 0.00 66 1009.9
20260504031528 51 277 3.0 7.0 0.00 0.00 0.00 67 1010.2
20260504030037 50 240 2.0 5.0 0.00 0.00 0.00 70 1010.2
20260504024527 50 236 2.0 7.0 0.00 0.00 0.00 72 1010.2
20260504023026 49 246 3.0 6.0 0.00 0.00 0.00 73 1010.4
20260504021525 49 244 2.0 7.0 0.00 0.00 0.00 74 1010.7
20260504020028 49 252 3.0 10.0 0.00 0.00 0.00 75 1010.8
20260504014525 50 203 5.0 16.0 0.00 0.00 0.00 74 1011.0
20260504013026 52 328 9.0 17.0 0.00 0.00 0.00 65 1011.1
20260504011523 53 279 7.0 19.0 0.00 0.00 0.00 60 1010.7
20260504010021 53 272 7.0 20.0 0.00 0.00 0.00 57 1010.4
20260504004523 54 259 14.0 25.0 0.00 0.00 0.00 54 1010.3
20260504003019 54 242 10.0 19.0 0.00 0.00 0.00 52 1010.1
20260504001518 54 272 9.0 17.0 0.00 0.00 0.00 50 1010.0
20260504000017 54 246 4.0 8.0 0.00 0.00 0.00 50 1009.7
20260503234522 54 256 7.0 14.0 0.00 0.00 0.00 50 1009.6
20260503233015 53 226 3.0 18.0 0.00 0.00 0.00 55 1009.8
20260503231518 53 271 7.0 17.0 0.00 0.00 0.00 52 1010.4
20260503230014 54 261 9.0 16.0 0.00 0.00 0.00 51 1010.6
20260503224514 54 290 5.0 10.0 0.00 0.00 0.00 50 1010.3
20260503223021 54 217 3.0 11.0 0.00 0.00 0.00 50 1010.1
20260503221511 55 270 4.0 10.0 0.00 0.00 0.00 49 1010.0
20260503220011 55 243 7.0 11.0 0.00 0.00 0.00 49 1009.9
20260503214504 54 278 6.0 13.0 0.00 0.00 0.00 50 1010.2
20260503213133 54 259 7.0 12.0 0.00 0.00 0.00 50 1010.2
20260503211620 53 266 7.0 13.0 0.00 0.00 0.00 48 1010.1
20260503210056 53 248 5.0 12.0 0.00 0.00 0.00 50 1010.2
20260503204604 53 269 6.0 13.0 0.00 0.00 0.00 50 1010.3
20260503203051 53 252 5.0 16.0 0.00 0.00 0.00 54 1010.7
20260503201550 53 267 5.0 13.0 0.00 0.00 0.00 54 1010.7
20260503200050 53 293 8.0 14.0 0.00 0.00 0.00 53 1011.1
20260503194547 52 299 5.0 12.0 0.00 0.00 0.00 54 1011.2
20260503193046 52 288 7.0 14.0 0.00 0.00 0.00 53 1011.2
20260503191600 52 280 6.0 12.0 0.00 0.00 0.00 52 1011.4
20260503190047 53 266 4.0 13.0 0.00 0.00 0.00 50 1011.5
20260503184600 53 289 5.0 13.0 0.00 0.00 0.00 51 1011.6
20260503183046 52 246 8.0 16.0 0.00 0.00 0.00 48 1011.7
20260503181540 53 261 7.0 15.0 0.00 0.00 0.00 49 1012.0
20260503180038 53 272 9.0 16.0 0.00 0.00 0.00 46 1012.1
20260503174545 52 203 5.0 16.0 0.00 0.00 0.00 47 1012.2
20260503173034 52 229 6.0 15.0 0.00 0.00 0.00 46 1012.4
20260503171534 50 314 8.0 16.0 0.00 0.00 0.00 46 1012.6
20260503081515 37 265 0.0 2.0 0.00 0.00 0.00 86 1014.0
20260503071508 38 273 1.0 3.0 0.00 0.01 0.00 85 1014.0